Weather History for KPIR - July, 2013

Change the Weather History Date:

Friday, July 12, 2013

  Actual Average Record
Temperature  
Mean Temperature 83 °F 75 °F  
Max Temperature 94 °F 89 °F 105 °F (1939)
Min Temperature 72 °F 62 °F 44 °F (1975)
Degree Days  
Heating Degree Days 0 0  
Month to date heating degree days 0 0  
Since 1 June heating degree days 60 53  
Since 1 July heating degree days 0 0  
Cooling Degree Days 18 10  
Month to date cooling degree days 109 113  
Year to date cooling degree days 250 279  
Since 1 June cooling degree days 228 247  
Growing Degree Days 32 (Base 50)    
Moisture  
Dew Point 67 °F    
Average Humidity 62    
Maximum Humidity 79    
Minimum Humidity 44    
Precipitation  
Precipitation 0.00 in 0.09 in 2.41 in (1899)
Month to date precipitation 1.91 1.00  
Year to date precipitation 13.73 11.77  
Sea Level Pressure  
Sea Level Pressure 29.70 in    
Wind  
Wind Speed 11 mph (SSW)    
Max Wind Speed 20 mph    
Max Gust Speed 26 mph    
Visibility 10 miles    
Events      
T = Trace of Precipitation, MM = Missing Value Source: NWS Daily Summary

Daily Weather History Graph

Daily Weather History Graph

Search for Another Location

Airport or City:

Trip Planner

Search our weather history database for the weather conditions in past years. The results will help you decide how hot, cold, wet, or windy it might be!

Date:

Astronomy

Jul. 12, 2013 Rise Set
Actual Time 6:08 AM CDT 9:24 PM CDT
Civil Twilight 5:32 AM CDT 10:00 PM CDT
Nautical Twilight 4:46 AM CDT 10:46 PM CDT
Astronomical Twilight 3:49 AM CDT 11:42 PM CDT
Moon 10:39 AM CDT (7/12) 11:22 PM CDT (7/12)
Length of Visible Light 16h 27m
Length of Day
15h 16m
Waxing Crescent, 17% of the Moon is Illuminated
Jul 12
Waxing Crescent
Jul 15
First Quarter
Jul 22
Full
Jul 29
Last Quarter
Aug 6
New

Hourly Weather History & Observations

Time (CDT) Temp. Heat Index Dew Point Humidity Pressure Visibility Wind Dir Wind Speed Gust Speed Precip Events Conditions
12:53 AM 79.0 °F - 68.0 °F 69% 29.70 in 10.0 mi SE 13.8 mph 20.7 mph N/A   Clear
1:53 AM 78.1 °F - 66.9 °F 68% 29.69 in 10.0 mi SSE 13.8 mph - N/A   Clear
2:53 AM 78.1 °F - 64.9 °F 64% 29.69 in 10.0 mi SSE 13.8 mph 26.5 mph N/A   Clear
3:53 AM 75.9 °F - 64.9 °F 69% 29.68 in 10.0 mi ESE 9.2 mph - N/A   Clear
4:53 AM 73.0 °F - 64.9 °F 76% 29.67 in 10.0 mi ESE 8.1 mph - N/A   Clear
5:53 AM 72.0 °F - 64.9 °F 78% 29.67 in 10.0 mi SE 8.1 mph - N/A   Clear
6:53 AM 73.0 °F - 64.9 °F 76% 29.64 in 10.0 mi SE 13.8 mph - N/A   Clear
7:53 AM 75.0 °F - 64.9 °F 71% 29.68 in 10.0 mi SSE 11.5 mph - N/A   Clear
8:53 AM 78.1 °F - 66.0 °F 66% 29.66 in 10.0 mi SSE 15.0 mph - N/A   Clear
9:53 AM 82.9 °F 85.8 °F 68.0 °F 60% 29.65 in 10.0 mi South 16.1 mph 20.7 mph N/A   Clear
10:53 AM 88.0 °F 91.4 °F 68.0 °F 51% 29.64 in 10.0 mi South 10.4 mph - N/A   Clear
11:53 AM 89.1 °F 92.1 °F 66.9 °F 48% 29.64 in 10.0 mi SW 9.2 mph - N/A   Clear
12:53 PM 91.0 °F 95.2 °F 68.0 °F 47% 29.64 in 10.0 mi SSW 10.4 mph - N/A   Clear
1:53 PM 93.0 °F 97.4 °F 68.0 °F 44% 29.65 in 10.0 mi WNW 9.2 mph - N/A   Clear
2:53 PM 89.1 °F 96.0 °F 72.0 °F 57% 29.68 in 10.0 mi NW 17.3 mph 24.2 mph N/A   Clear
3:53 PM 91.0 °F 97.6 °F 71.1 °F 52% 29.70 in 10.0 mi NW 12.7 mph - N/A   Clear
4:53 PM 91.0 °F 97.6 °F 71.1 °F 52% 29.72 in 10.0 mi NW 15.0 mph - N/A   Clear
5:53 PM 90.0 °F 95.4 °F 70.0 °F 52% 29.73 in 10.0 mi NNW 16.1 mph - N/A   Clear
6:53 PM 88.0 °F 91.4 °F 68.0 °F 51% 29.75 in 10.0 mi NNW 16.1 mph - N/A   Clear
7:53 PM 86.0 °F 88.8 °F 66.9 °F 53% 29.76 in 10.0 mi North 9.2 mph - N/A   Clear
8:53 PM 81.0 °F 83.8 °F 68.0 °F 65% 29.78 in 10.0 mi NNW 6.9 mph - N/A   Clear
9:53 PM 78.1 °F - 68.0 °F 71% 29.78 in 10.0 mi NNW 9.2 mph - N/A   Clear
10:53 PM 75.9 °F - 66.9 °F 74% 29.80 in 10.0 mi North 8.1 mph - N/A   Clear
11:53 PM 75.9 °F - 66.0 °F 71% 29.81 in 10.0 mi North 8.1 mph - N/A   Clear